15min,AgWx,beryljct,423,08NOV2020:00:00:00,32.8,12.65,32.5,31.8,31.7,31.9,31.5,86,86,85,0.514,28.0,28.1,27.8,19.69,12.9,192,7.7,19.7,0.00005,0.00006,45.8,50.1,9,0,.,.,5.96,0.00,0.00
15min,AgWx,beryljct,423,08NOV2020:00:15:00,32.9,12.65,31.3,31.2,31.7,32.1,31.2,84,85,82,0.499,27.3,27.8,27.0,8.81,12.4,195,8.7,19.3,0.00006,0.00008,45.7,50.1,9,0,.,.,5.96,0.00,0.00
15min,AgWx,beryljct,423,08NOV2020:00:30:00,32.7,12.62,30.4,30.3,30.7,31.2,30.3,85,86,84,0.487,26.7,27.0,26.4,7.717,8.9,182,8.6,12.8,0.00003,0.00005,45.6,50.0,9,0,.,.,5.96,0.00,0.00
15min,AgWx,beryljct,423,08NOV2020:00:45:00,32.3,12.62,32.2,31.8,30.8,31.9,30.1,86,87,86,0.519,27.1,28.1,26.4,14.93,11.7,193,7.8,18.6,0.00004,0.00005,45.4,50.0,9,0,.,.,5.97,0.00,0.00
15min,AgWx,beryljct,423,08NOV2020:01:00:00,32.5,12.62,32.7,32.2,32.0,32.4,31.8,85,86,84,0.520,28.0,28.1,27.9,19.47,18.1,193,6.9,25.9,0.00007,0.00008,45.3,49.9,9,0,.,.,5.97,0.00,0.00
15min,AgWx,beryljct,423,08NOV2020:01:15:00,32.8,12.62,32.8,32.4,32.3,32.4,32.2,84,84,83,0.520,28.0,28.2,27.8,20.01,19.1,193,7.1,24.9,0.00008,0.00010,45.2,49.8,9,0,.,.,5.96,0.00,0.00
15min,AgWx,beryljct,423,08NOV2020:01:30:00,32.9,12.61,32.5,32.1,32.3,32.6,32.1,84,85,83,0.520,28.0,28.2,27.8,18.33,17.0,192,7.3,22.5,0.00008,0.00009,45.1,49.8,9,0,.,.,5.96,0.00,0.00
15min,AgWx,beryljct,423,08NOV2020:01:45:00,33.1,12.61,32.9,32.6,32.4,32.8,32.1,84,85,83,0.524,28.1,28.4,27.9,13.26,15.9,186,7.9,22.5,0.00007,0.00009,44.9,49.7,9,0,.,.,5.96,0.00,0.00
15min,AgWx,beryljct,423,08NOV2020:02:00:00,33.5,12.6,33.7,33.2,32.8,33.2,32.5,82,84,79,0.506,28.0,28.4,27.4,21.62,17.1,187,9.4,25.0,0.00009,0.00011,44.8,49.6,9,0,.,.,5.96,0.00,0.00
15min,AgWx,beryljct,423,08NOV2020:02:15:00,33.8,12.6,33.7,33.2,33.2,33.3,33.1,79,79,78,0.499,27.3,27.5,27.1,23.81,18.7,193,7.1,23.8,0.00012,0.00014,44.7,49.6,9,0,.,.,5.96,0.00,0.00
15min,AgWx,beryljct,423,08NOV2020:02:30:00,33.9,12.6,33.9,33.5,33.2,33.5,33.0,78,79,77,0.498,27.1,27.3,27.0,25.93,20.2,193,7.1,27.7,0.00013,0.00015,44.6,49.6,9,0,.,.,5.96,0.00,0.00
15min,AgWx,beryljct,423,08NOV2020:02:45:00,34.1,12.59,33.5,33.3,33.3,33.5,33.1,78,79,77,0.501,27.1,27.3,26.9,19.29,21.5,195,8.2,27.3,0.00014,0.00015,44.5,49.5,9,0,.,.,5.96,0.00,0.00
15min,AgWx,beryljct,423,08NOV2020:03:00:00,34.1,12.59,33.9,33.4,33.2,33.4,33.1,78,79,77,0.498,27.1,27.3,26.9,26.11,21.1,195,8.3,27.3,0.00013,0.00015,44.4,49.4,9,0,.,.,5.97,0.00,0.00
15min,AgWx,beryljct,423,08NOV2020:03:15:00,34.2,12.58,33.4,33.2,33.3,33.5,33.1,77,78,76,0.493,26.9,27.1,26.8,19.53,20.9,197,6.8,28.5,0.00014,0.00015,44.4,49.4,9,0,.,.,5.96,0.00,0.00
15min,AgWx,beryljct,423,08NOV2020:03:30:00,34.1,12.59,32.9,32.6,32.7,33.2,32.6,78,79,77,0.493,26.8,27.0,26.6,18.61,19.8,195,7.6,25.5,0.00012,0.00014,44.3,49.3,9,0,.,.,5.96,0.00,0.00
15min,AgWx,beryljct,423,08NOV2020:03:45:00,33.8,12.59,32.5,32.2,32.3,32.6,32.1,79,80,79,0.486,26.6,26.8,26.4,22.4,19.4,193,7.7,24.0,0.00012,0.00013,44.2,49.2,9,0,.,.,5.96,0.00,0.00
15min,AgWx,beryljct,423,08NOV2020:04:00:00,33.4,12.59,31.8,31.7,31.9,32.3,31.6,80,81,79,0.488,26.4,26.7,26.3,16.24,18.4,191,7.5,24.9,0.00011,0.00012,44.1,49.2,9,0,.,.,5.96,0.00,0.00
15min,AgWx,beryljct,423,08NOV2020:04:15:00,33.1,12.57,32.5,32.1,31.7,32.1,31.5,80,82,77,0.476,26.2,26.6,25.9,19.86,18.1,193,6.7,24.4,0.00011,0.00012,44.1,49.1,8,0,.,.,5.96,0.00,0.00
15min,AgWx,beryljct,423,08NOV2020:04:30:00,33.1,12.58,32.6,32.0,32.0,32.2,31.8,78,79,77,0.478,26.0,26.2,25.8,23.19,18.2,187,7.6,24.6,0.00012,0.00013,44.0,49.1,9,0,.,.,5.96,0.00,0.00
15min,AgWx,beryljct,423,08NOV2020:04:45:00,33.2,12.59,32.2,32.1,32.2,32.5,31.9,77,79,76,0.474,25.8,26.1,25.5,12.67,17.9,187,7.6,25.6,0.00013,0.00014,43.9,49.0,9,0,.,.,5.96,0.00,0.00
15min,AgWx,beryljct,423,08NOV2020:05:00:00,33.2,12.58,32.4,32.1,32.1,32.3,32.0,77,78,76,0.472,25.8,25.9,25.6,14.34,16.5,187,7.3,22.6,0.00012,0.00014,43.8,49.0,9,0,.,.,5.96,0.00,0.00
15min,AgWx,beryljct,423,08NOV2020:05:15:00,33.1,12.57,31.9,31.7,31.9,32.1,31.6,77,79,77,0.473,25.6,25.8,25.5,12.96,14.2,187,7.4,18.6,0.00011,0.00013,43.7,48.9,8,0,.,.,5.96,0.00,0.00
15min,AgWx,beryljct,423,08NOV2020:05:30:00,33.0,12.56,31.8,31.3,31.4,31.7,31.3,79,80,78,0.474,25.8,25.9,25.6,9.23,10.0,182,8.1,13.8,0.00007,0.00009,43.7,48.8,9,0,.,.,5.96,0.00,0.00
15min,AgWx,beryljct,423,08NOV2020:05:45:00,32.9,12.56,31.9,31.4,31.4,31.6,31.3,80,80,79,0.475,25.8,26.0,25.8,6.423,8.4,181,8.9,11.4,0.00006,0.00008,43.6,48.8,9,0,.,.,5.96,0.00,0.00
15min,AgWx,beryljct,423,08NOV2020:06:00:00,32.9,12.56,32.3,31.9,31.6,31.9,31.4,79,80,78,0.480,25.9,26.1,25.8,11.25,9.0,183,10,14.0,0.00007,0.00008,43.5,48.7,9,0,.,.,5.96,0.00,0.00
15min,AgWx,beryljct,423,08NOV2020:06:15:00,33.1,12.56,32.5,32.0,32.0,32.1,31.9,79,81,79,0.491,26.4,26.8,26.1,15.63,12.0,187,8.4,16.6,0.00009,0.00010,43.4,48.7,9,0,.,.,5.96,0.00,0.00
15min,AgWx,beryljct,423,08NOV2020:06:30:00,33.3,12.57,32.3,31.9,32.0,32.1,31.9,81,81,80,0.493,26.7,26.9,26.5,15.21,13.1,185,6.9,16.6,0.00028,0.00048,43.3,48.6,9,0,.,.,5.96,0.00,0.00
15min,AgWx,beryljct,423,08NOV2020:06:45:00,33.4,12.57,32.4,31.9,32.0,32.1,31.9,81,81,80,0.490,26.7,26.8,26.5,16.2,14.1,192,7.7,17.7,0.00029,0.00050,43.3,48.5,9,0,.,.,5.96,0.00,0.00
15min,AgWx,beryljct,423,08NOV2020:07:00:00,33.4,12.57,32.5,32.1,32.0,32.2,31.9,80,80,79,0.483,26.5,26.6,26.2,16.22,15.0,190,7.0,19.5,0.00031,0.00054,43.2,48.5,8,0,.,.,5.95,0.00,0.00
15min,AgWx,beryljct,423,08NOV2020:07:15:00,33.4,12.57,32.4,32.0,32.1,32.2,32.0,77,79,76,0.471,25.9,26.2,25.6,17.49,17.2,183,6.1,21.6,0.00038,0.00066,43.2,48.5,9,2,.,.,5.96,0.00,0.00
15min,AgWx,beryljct,423,08NOV2020:07:30:00,33.4,12.57,32.3,31.9,31.9,32.0,31.8,77,79,77,0.470,25.7,25.9,25.5,16.57,15.8,189,6.9,19.9,0.00037,0.00064,43.1,48.4,9,7,.,.,5.96,0.00,0.00
15min,AgWx,beryljct,423,08NOV2020:07:45:00,33.5,12.57,32.3,31.9,31.9,32.1,31.8,76,78,75,0.468,25.4,25.7,25.0,15.96,14.1,184,6.3,18.7,0.00038,0.00064,43.1,48.3,9,13,.,.,5.96,0.00,0.00
15min,AgWx,beryljct,423,08NOV2020:08:00:00,33.5,12.57,32.6,32.1,31.9,32.1,31.8,77,78,76,0.470,25.6,25.8,25.3,10.87,10.7,183,6.8,14.1,0.00041,0.00063,43.0,48.3,9,43,.,.,5.96,0.00,0.00
15min,AgWx,beryljct,423,08NOV2020:08:15:00,33.6,12.58,32.6,32.2,32.2,32.3,32.1,76,77,76,0.467,25.6,25.7,25.4,13.18,10.7,187,8.5,13.9,0.00045,0.00068,43.0,48.2,9,52,.,.,5.95,0.00,0.00
15min,AgWx,beryljct,423,08NOV2020:08:30:00,33.7,12.57,32.5,32.1,32.2,32.3,32.1,76,77,75,0.467,25.5,25.8,25.3,14.38,11.9,184,8.4,17.8,0.00045,0.00070,42.9,48.2,9,47,.,.,5.96,0.00,0.00
15min,AgWx,beryljct,423,08NOV2020:08:45:00,33.7,12.57,32.3,31.9,32.1,32.2,31.9,76,77,75,0.462,25.3,25.5,25.2,8.29,11.0,174,10,15.4,0.00041,0.00065,42.9,48.1,9,35,.,.,5.95,0.00,0.00
15min,AgWx,beryljct,423,08NOV2020:09:00:00,33.7,12.58,32.5,32.1,32.0,32.1,31.9,77,78,76,0.474,25.5,25.8,25.2,10.85,9.7,171,9.9,13.9,0.00044,0.00066,42.8,48.1,8,58,.,.,5.95,0.00,0.00
15min,AgWx,beryljct,423,08NOV2020:09:15:00,33.9,12.54,32.7,32.3,32.2,32.3,32.0,77,78,76,0.479,25.8,26.1,25.5,8.92,10.2,178,9.8,14.8,0.00054,0.00076,42.8,48.0,9,89,.,.,5.95,0.00,0.00
15min,AgWx,beryljct,423,08NOV2020:09:30:00,34.1,12.58,32.6,32.2,32.2,32.4,32.1,77,78,77,0.480,26.0,26.2,25.7,9.14,10.7,182,7.4,15.4,0.00055,0.00078,42.8,48.0,9,93,.,.,5.96,0.00,0.00
15min,AgWx,beryljct,423,08NOV2020:09:45:00,34.3,12.56,32.7,32.5,32.3,32.5,32.1,77,79,77,0.480,26.1,26.6,25.7,16.11,12.2,184,9.4,16.3,0.00068,0.00093,42.8,47.9,9,143,.,.,5.95,0.00,0.00
15min,AgWx,beryljct,423,08NOV2020:10:00:00,34.5,12.56,32.7,32.2,32.4,32.5,32.2,77,78,76,0.470,25.9,26.2,25.6,13.81,13.1,188,8.8,16.2,0.00060,0.00087,42.8,47.9,9,101,.,.,5.95,0.00,0.00
15min,AgWx,beryljct,423,08NOV2020:10:15:00,34.6,12.53,32.3,32.0,32.2,32.4,32.0,78,80,76,0.479,26.0,26.6,25.5,15.17,12.8,182,8.8,16.6,0.00058,0.00083,42.8,47.8,8,100,.,.,5.95,0.00,0.00
15min,AgWx,beryljct,423,08NOV2020:10:30:00,34.4,12.56,32.3,31.8,32.0,32.1,31.8,79,80,78,0.483,26.2,26.6,25.9,12.78,13.6,179,8.6,18.9,0.00050,0.00073,42.8,47.8,8,73,.,.,5.95,0.00,0.00
15min,AgWx,beryljct,423,08NOV2020:10:45:00,34.2,12.59,32.2,31.7,31.8,31.9,31.7,81,82,80,0.493,26.6,26.9,26.3,8.55,9.6,174,11,14.0,0.00045,0.00062,42.8,47.7,9,76,.,.,5.95,0.00,0.00
15min,AgWx,beryljct,423,08NOV2020:11:00:00,34.2,12.59,31.6,31.7,32.1,32.3,31.7,81,84,79,0.505,26.8,27.3,26.4,16.64,10.8,180,10,17.4,0.00047,0.00066,42.8,47.7,9,79,.,.,5.95,0.00,0.00
15min,AgWx,beryljct,423,08NOV2020:11:15:00,34.0,12.55,31.0,30.6,30.8,31.7,30.4,90,92,84,0.529,28.1,28.6,27.3,7.98,11.5,186,8.3,17.4,0.00041,0.00052,42.8,47.6,9,103,.,.,5.95,0.00,0.00
15min,AgWx,beryljct,423,08NOV2020:11:30:00,33.8,12.56,31.6,31.2,30.9,31.3,30.6,90,92,87,0.517,28.3,28.6,27.8,5.897,7.7,177,11,11.5,0.00042,0.00051,42.8,47.6,9,103,.,.,5.95,0.00,0.00
15min,AgWx,beryljct,423,08NOV2020:11:45:00,33.7,12.54,31.6,30.9,30.9,31.3,30.7,89,90,87,0.528,28.2,28.5,27.9,9.49,10.0,170,9.3,14.9,0.00052,0.00064,42.8,47.5,9,142,.,.,5.96,0.00,0.00
15min,AgWx,beryljct,423,08NOV2020:12:00:00,34.0,12.66,33.0,32.7,31.4,32.7,30.9,90,91,88,0.556,28.9,29.7,28.5,9.36,8.3,180,12,11.6,0.00086,0.00098,42.8,47.5,8,287,.,.,5.96,0.00,0.00
15min,AgWx,beryljct,423,08NOV2020:12:15:00,35.0,12.76,31.8,31.7,32.8,33.7,31.7,87,90,85,0.541,29.4,30.5,28.6,10.41,11.8,172,12,16.2,0.00104,0.00121,42.8,47.5,8,355,.,.,5.96,0.00,0.00
15min,AgWx,beryljct,423,08NOV2020:12:30:00,35.1,13.22,33.6,32.6,31.9,32.6,31.4,90,91,89,0.559,29.3,29.9,28.8,12.21,10.9,177,10,15.7,0.00073,0.00085,42.8,47.4,8,241,.,.,5.96,0.00,0.00
15min,AgWx,beryljct,423,08NOV2020:12:45:00,35.4,13.27,32.8,32.1,32.3,32.7,32.0,89,90,88,0.541,29.4,30.0,28.9,10.02,10.7,182,12,14.7,0.00070,0.00084,42.9,47.4,9,217,.,.,5.96,0.00,0.00
15min,AgWx,beryljct,423,08NOV2020:13:00:00,35.4,13.42,33.1,32.4,32.1,32.6,31.3,90,92,88,0.552,29.6,30.5,28.8,6.971,9.4,176,13,13.8,0.00070,0.00082,43.0,47.4,9,223,.,.,5.96,0.00,0.00
15min,AgWx,beryljct,423,08NOV2020:13:15:00,35.2,13.3,31.4,31.1,31.7,32.6,31.1,91,94,89,0.554,29.4,29.8,29.0,8.79,10.6,173,11,14.1,0.00063,0.00074,43.1,47.3,9,206,.,.,5.96,0.00,0.00
15min,AgWx,beryljct,423,08NOV2020:13:30:00,35.1,13.1,32.2,31.8,31.4,31.9,30.9,95,95,94,0.570,30.0,30.6,29.6,8.37,8.6,168,9.4,12.2,0.00071,0.00079,43.2,47.3,9,259,.,.,5.97,0.00,0.00
15min,AgWx,beryljct,423,08NOV2020:13:45:00,35.0,12.94,31.7,31.5,31.6,31.9,31.4,93,95,92,0.566,29.9,30.4,29.6,10.72,11.2,174,9.0,15.9,0.00053,0.00062,43.3,47.3,9,184,.,.,5.97,0.00,0.00
15min,AgWx,beryljct,423,08NOV2020:14:00:00,34.9,12.82,31.8,31.7,31.9,32.4,31.4,94,95,93,0.562,30.4,31.0,29.7,9.84,10.3,180,9.6,14.9,0.00049,0.00057,43.4,47.2,8,169,.,.,5.97,0.00,0.00
15min,AgWx,beryljct,423,08NOV2020:14:15:00,34.8,12.71,31.8,31.3,31.5,31.9,31.2,94,95,93,0.559,29.9,30.5,29.5,13.28,14.2,176,9.0,19.0,0.00063,0.00072,43.4,47.2,9,288,.,.,5.97,0.00,0.01
15min,AgWx,beryljct,423,08NOV2020:14:30:00,34.8,13.38,32.8,32.0,31.4,32.1,31.1,96,96,94,0.585,30.3,31.0,29.7,9.95,10.1,183,12,14.9,0.00068,0.00075,43.5,47.2,9,315,.,.,5.97,0.00,0.00
15min,AgWx,beryljct,423,08NOV2020:14:45:00,34.8,13.38,32.8,32.5,32.1,32.6,31.7,93,96,90,0.561,30.4,31.1,29.9,13.94,11.8,184,12,16.8,0.00042,0.00050,43.5,47.2,9,167,.,.,5.97,0.00,0.00
15min,AgWx,beryljct,423,08NOV2020:15:00:00,34.7,13.54,32.0,31.2,31.6,32.6,30.9,91,95,88,0.565,29.3,30.1,28.4,8.64,12.0,199,13,17.7,0.00053,0.00063,43.6,47.1,9,253,.,.,5.98,0.00,0.00
15min,AgWx,beryljct,423,08NOV2020:15:15:00,35.1,14.2,33.9,33.1,32.7,33.7,31.3,91,96,87,0.567,30.4,31.3,29.8,12.78,10.3,179,13,14.6,0.00084,0.00096,43.6,47.1,9,349,.,.,5.97,0.00,0.00
15min,AgWx,beryljct,423,08NOV2020:15:30:00,35.7,14.44,33.0,32.7,32.9,33.5,32.4,89,90,87,0.567,29.9,30.4,29.5,12.63,12.7,184,11,16.9,0.00074,0.00089,43.6,47.1,8,313,.,.,5.97,0.00,0.00
15min,AgWx,beryljct,423,08NOV2020:15:45:00,36.2,14.67,32.8,32.5,33.0,33.5,32.5,90,91,89,0.555,30.5,31.0,29.7,11.4,9.1,185,14,15.2,0.00061,0.00072,43.6,47.1,8,258,.,.,5.97,0.00,0.00
15min,AgWx,beryljct,423,08NOV2020:16:00:00,36.3,13.66,32.2,32.4,32.5,32.9,32.1,89,90,88,0.555,29.7,30.4,28.9,13.99,10.5,176,12,15.0,0.00048,0.00060,43.7,47.1,9,216,.,.,5.97,0.00,0.00
15min,AgWx,beryljct,423,08NOV2020:16:15:00,35.9,14.69,33.3,32.9,32.5,33.2,32.2,89,89,87,0.556,29.5,30.2,29.2,10.98,10.1,181,9.8,14.0,0.00040,0.00052,43.8,47.1,8,190,.,.,5.97,0.00,0.00
15min,AgWx,beryljct,423,08NOV2020:16:30:00,36.0,13.41,33.6,33.1,33.0,33.2,32.8,86,88,84,0.545,29.2,30.0,28.6,4.954,7.4,182,10,11.2,0.00012,0.00014,43.8,47.1,8,138,.,.,5.97,0.00,0.00
15min,AgWx,beryljct,423,08NOV2020:16:45:00,36.1,13.54,33.7,33.2,33.3,33.6,33.0,84,86,81,0.530,29.0,29.7,28.2,6.686,7.2,171,10,10.2,0.00015,0.00017,43.9,47.1,9,157,.,.,5.97,0.00,0.00
15min,AgWx,beryljct,423,08NOV2020:17:00:00,36.0,13.26,32.1,31.8,32.8,33.3,31.8,86,90,83,0.543,29.0,29.5,28.5,6.314,8.3,163,11,11.5,0.00005,0.00007,43.9,47.1,9,67,.,.,5.97,0.00,0.00
15min,AgWx,beryljct,423,08NOV2020:17:15:00,35.3,13.14,32.0,31.8,31.7,31.9,31.6,91,92,90,0.558,29.5,29.8,29.1,2.718,4.6,161,12,6.7,-0.00004,-0.00004,43.9,47.1,9,34,.,.,5.97,0.00,0.00
15min,AgWx,beryljct,423,08NOV2020:17:30:00,34.7,13.06,31.3,31.1,31.5,31.8,31.1,92,94,92,0.553,29.5,29.8,29.3,6.555,4.5,158,15,7.8,-0.00007,-0.00008,43.9,47.0,8,8,.,.,5.98,0.00,0.00
15min,AgWx,beryljct,423,08NOV2020:17:45:00,34.1,13.03,31.4,30.9,31.0,31.2,30.8,95,96,94,0.563,29.7,30.0,29.5,4.779,5.2,163,10,7.1,-0.00008,-0.00009,43.9,47.1,9,1,.,.,5.98,0.00,0.00
15min,AgWx,beryljct,423,08NOV2020:18:00:00,33.5,13.01,31.3,30.9,30.9,31.0,30.8,96,96,95,0.553,29.9,30.1,29.5,4.012,4.8,175,11,6.5,-0.00009,-0.00010,43.8,47.0,8,0,.,.,5.97,0.00,0.00
15min,AgWx,beryljct,423,08NOV2020:18:15:00,33.0,12.98,31.1,30.7,30.7,30.9,30.6,94,95,92,0.534,29.1,29.6,28.6,3.968,4.6,169,11,7.5,-0.00009,-0.00010,43.8,47.0,9,0,.,.,5.98,0.00,0.00
15min,AgWx,beryljct,423,08NOV2020:18:30:00,32.7,12.94,30.9,30.5,30.6,30.7,30.5,93,94,92,0.542,28.9,29.1,28.7,2.828,3.3,182,7.5,4.5,-0.00011,-0.00012,43.7,47.0,9,0,.,.,5.98,0.00,0.00
15min,AgWx,beryljct,423,08NOV2020:18:45:00,32.5,12.95,30.7,30.4,30.5,30.5,30.4,94,95,94,0.540,29.0,29.1,29.0,1.951,2.4,164,5.9,3.5,-0.00013,-0.00016,43.6,47.0,8,0,.,.,5.98,0.00,0.00
15min,AgWx,beryljct,423,08NOV2020:19:00:00,32.1,12.92,30.7,30.4,30.3,30.5,30.2,94,95,94,0.541,28.9,29.1,28.8,1.666,0.7,202,39,1.7,-0.00019,-0.00027,43.5,47.0,9,0,.,.,5.98,0.00,0.00
15min,AgWx,beryljct,423,08NOV2020:19:15:00,31.9,12.91,30.7,30.4,30.2,30.4,30.1,95,95,93,0.529,28.8,29.0,28.5,3.069,3.8,142,31,7.5,-0.00010,-0.00012,43.4,47.0,9,0,.,.,5.98,0.00,0.00
15min,AgWx,beryljct,423,08NOV2020:19:30:00,31.7,12.9,30.2,29.9,30.2,30.4,29.9,93,94,92,0.523,28.3,28.5,28.2,2.916,4.1,177,8.1,6.1,-0.00009,-0.00010,43.3,47.0,8,0,.,.,5.98,0.00,0.00
15min,AgWx,beryljct,423,08NOV2020:19:45:00,31.4,12.87,30.0,29.7,29.7,29.9,29.6,94,94,93,0.522,28.2,28.3,28.1,3.157,3.8,167,6.0,5.5,-0.00010,-0.00011,43.1,47.0,8,0,.,.,5.97,0.00,0.00
15min,AgWx,beryljct,423,08NOV2020:20:00:00,31.3,12.87,29.8,29.6,29.6,29.8,29.5,94,94,94,0.522,28.1,28.2,28.0,2.631,2.6,172,5.6,4.4,-0.00012,-0.00015,43.0,47.0,9,0,.,.,5.98,0.00,0.00
15min,AgWx,beryljct,423,08NOV2020:20:15:00,31.0,12.85,29.5,29.1,29.3,29.5,29.1,94,95,94,0.513,27.9,28.1,27.7,2.061,3.0,178,10,3.7,-0.00011,-0.00014,42.9,47.0,9,0,.,.,5.98,0.00,0.00
15min,AgWx,beryljct,423,08NOV2020:20:30:00,30.8,12.83,29.5,29.1,29.2,29.4,29.0,93,95,91,0.510,27.3,27.7,26.9,3.858,2.8,162,48,5.1,-0.00011,-0.00014,42.8,46.9,9,0,.,.,5.98,0.00,0.00
15min,AgWx,beryljct,423,08NOV2020:20:45:00,30.8,12.82,29.4,29.1,29.1,29.2,28.9,95,95,94,0.511,27.7,27.8,27.5,2.433,3.3,137,14,4.2,-0.00010,-0.00012,42.7,46.9,9,0,.,.,5.98,0.00,0.00
15min,AgWx,beryljct,423,08NOV2020:21:00:00,30.8,12.81,30.2,29.5,29.1,29.5,29.0,94,95,94,0.525,27.7,28.3,27.4,5.086,4.1,188,11,7.4,-0.00009,-0.00010,42.6,46.9,8,0,.,.,5.98,0.00,0.00
15min,AgWx,beryljct,423,08NOV2020:21:15:00,31.1,12.8,30.0,29.6,29.7,29.9,29.5,95,97,94,0.535,28.5,28.8,28.2,7.475,8.0,194,11,10.6,-0.00005,-0.00005,42.5,46.9,8,0,.,.,5.98,0.00,0.00
15min,AgWx,beryljct,423,08NOV2020:21:30:00,31.3,12.78,29.7,29.3,29.4,29.7,29.3,97,97,97,0.528,28.6,28.9,28.4,6.204,7.4,201,7.4,11.3,-0.00007,-0.00007,42.4,46.9,8,0,.,.,5.99,0.00,0.00
15min,AgWx,beryljct,423,08NOV2020:21:45:00,31.4,12.75,29.5,29.1,29.2,29.3,29.1,95,97,95,0.517,28.1,28.4,27.9,6.883,6.8,202,7.8,9.2,-0.00006,-0.00007,42.3,46.9,8,0,.,.,5.99,0.00,0.00
15min,AgWx,beryljct,423,08NOV2020:22:00:00,31.3,12.75,29.1,28.8,28.9,29.1,28.8,95,96,95,0.512,27.8,27.9,27.7,3.705,4.7,186,8.7,6.8,-0.00008,-0.00009,42.2,46.8,9,0,.,.,5.99,0.00,0.00
15min,AgWx,beryljct,423,08NOV2020:22:15:00,31.1,12.71,29.0,28.7,28.6,28.8,28.5,96,96,95,0.509,27.5,27.7,27.4,2.061,3.5,194,7.1,4.3,-0.00010,-0.00012,42.1,46.8,8,0,.,.,5.99,0.00,0.00
15min,AgWx,beryljct,423,08NOV2020:22:30:00,31.0,12.71,28.7,28.4,28.7,28.9,28.4,95,96,94,0.496,27.4,27.6,26.9,4.362,3.5,183,11,4.6,-0.00010,-0.00012,42.1,46.7,9,0,.,.,5.99,0.00,0.00
15min,AgWx,beryljct,423,08NOV2020:22:45:00,30.8,12.7,28.8,28.3,28.4,28.5,28.2,94,95,94,0.497,27.0,27.2,26.8,6.138,4.6,183,7.6,6.1,-0.00008,-0.00009,42.0,46.7,9,0,.,.,5.99,0.00,0.00
15min,AgWx,beryljct,423,08NOV2020:23:00:00,30.6,12.66,28.1,27.8,28.1,28.4,27.8,95,96,94,0.493,26.9,27.1,26.7,5.853,6.6,181,6.7,8.5,-0.00006,-0.00007,41.9,46.7,9,0,.,.,5.99,0.00,0.00
15min,AgWx,beryljct,423,08NOV2020:23:15:00,30.4,12.65,28.1,27.7,27.6,27.8,27.5,96,96,96,0.493,26.7,26.8,26.6,4.362,5.0,171,8.2,6.8,-0.00008,-0.00009,41.8,46.7,8,0,.,.,5.99,0.00,0.00
15min,AgWx,beryljct,423,08NOV2020:23:30:00,30.2,12.62,28.0,27.5,27.6,27.7,27.5,96,96,95,0.486,26.6,26.8,26.4,4.582,4.6,175,7.7,5.9,-0.00009,-0.00010,41.8,46.6,9,0,.,.,5.99,0.00,0.00
15min,AgWx,bigpiney,439,08NOV2020:00:00:00,34.9,12.66,30.9,30.3,30.8,31.7,30.3,81,83,77,0.472,25.7,26.0,25.1,2.85,4.8,30,8.7,7.5,0.00008,0.00010,40.2,40.7,45,0,0,0.0,0.42,0.00,0.00
15min,AgWx,bigpiney,439,08NOV2020:00:15:00,33.9,12.66,28.7,28.9,30.2,31.0,28.9,81,83,79,0.445,25.0,25.9,24.1,6.27,3.7,110,82,7.1,0.00007,0.00009,40.2,40.8,45,0,0,0.0,0.42,0.00,0.00
15min,AgWx,bigpiney,439,08NOV2020:00:30:00,33.1,12.65,28.4,28.4,28.6,29.0,28.3,86,88,83,0.462,24.8,25.2,24.2,7.651,6.7,138,15,9.2,0.00007,0.00008,40.2,40.7,45,0,0,0.0,0.42,0.00,0.00
15min,AgWx,bigpiney,439,08NOV2020:00:45:00,32.4,12.66,29.5,29.2,28.8,29.2,28.3,88,89,85,0.464,25.5,26.0,25.2,8.11,8.7,156,8.7,11.7,0.00006,0.00007,40.1,40.8,45,0,0,0.0,0.42,0.00,0.00
15min,AgWx,bigpiney,439,08NOV2020:01:00:00,31.9,12.64,28.5,28.4,28.8,29.3,28.4,85,86,85,0.450,24.9,25.3,24.5,5.48,6.9,125,8.4,8.6,0.00007,0.00008,40.1,40.7,45,0,0,0.0,0.42,0.00,0.00
15min,AgWx,bigpiney,439,08NOV2020:01:15:00,31.6,12.63,28.2,28.1,28.1,28.4,27.8,86,87,85,0.449,24.4,24.7,24.2,3.968,5.0,124,15,7.1,0.00006,0.00007,40.1,40.8,45,0,0,0.0,0.42,0.00,0.00
15min,AgWx,bigpiney,439,08NOV2020:01:30:00,31.1,12.64,28.9,29.1,28.5,29.3,28.0,84,86,79,0.430,24.2,24.7,23.5,4.582,4.6,147,28,7.0,0.00006,0.00008,40.1,40.7,45,0,0,0.0,0.42,0.00,0.00
15min,AgWx,bigpiney,439,08NOV2020:01:45:00,30.8,12.63,27.3,26.6,27.9,29.1,26.5,81,81,79,0.390,22.7,23.8,21.1,6.226,4.0,210,10,6.2,0.00007,0.00009,40.1,40.8,45,0,0,0.0,0.42,0.00,0.00
15min,AgWx,bigpiney,439,08NOV2020:02:00:00,30.3,12.63,28.0,27.6,27.0,27.6,26.4,80,81,79,0.401,21.6,21.9,21.2,7.234,6.5,187,9.7,8.9,0.00009,0.00010,40.1,40.7,45,0,0,0.0,0.42,0.00,0.00
15min,AgWx,bigpiney,439,08NOV2020:02:15:00,29.8,12.63,27.3,27.3,27.4,27.7,27.1,78,79,78,0.398,21.6,21.8,21.4,7.059,7.4,199,6.6,9.7,0.00010,0.00012,40.0,40.8,45,0,0,0.0,0.42,0.00,0.00
15min,AgWx,bigpiney,439,08NOV2020:02:30:00,29.5,12.62,27.6,27.4,27.6,27.9,27.2,77,79,76,0.384,21.3,21.6,20.8,6.774,8.9,201,7.5,11.4,0.00011,0.00013,40.0,40.7,45,0,0,0.0,0.42,0.00,0.00
15min,AgWx,bigpiney,439,08NOV2020:02:45:00,29.2,12.62,25.8,25.6,26.6,27.4,25.6,77,79,76,0.370,20.4,20.9,19.9,6.533,6.3,205,10,8.6,0.00009,0.00012,40.0,40.7,45,0,0,0.0,0.42,0.00,0.00
15min,AgWx,bigpiney,439,08NOV2020:03:00:00,28.6,12.6,24.7,24.5,25.1,25.6,24.5,79,81,78,0.362,19.6,19.9,19.2,5.656,5.5,222,6.0,6.2,0.00008,0.00010,40.0,40.8,45,0,0,0.0,0.42,0.00,0.00
15min,AgWx,bigpiney,439,08NOV2020:03:15:00,27.9,12.61,24.9,25.2,25.4,26.4,24.3,77,81,74,0.346,19.1,19.7,18.3,5.744,6.9,225,13,10.0,0.00010,0.00012,40.0,40.8,45,0,0,0.0,0.42,0.00,0.00
15min,AgWx,bigpiney,439,08NOV2020:03:30:00,27.3,12.61,23.9,23.7,24.5,25.2,23.7,76,78,75,0.337,18.1,18.3,17.7,6.204,6.3,229,14,7.6,0.00009,0.00011,39.9,40.8,45,0,0,0.0,0.42,0.00,0.00
15min,AgWx,bigpiney,439,08NOV2020:03:45:00,26.6,12.61,24.1,24.1,23.5,24.3,23.2,77,78,76,0.336,17.4,18.1,16.9,4.253,5.4,179,15,7.0,0.00008,0.00010,39.9,40.8,45,0,0,0.0,0.42,0.00,0.00
15min,AgWx,bigpiney,439,08NOV2020:04:00:00,25.9,12.61,25.0,24.4,24.0,24.5,23.7,75,76,74,0.339,17.3,17.9,16.9,5.48,5.4,176,7.7,6.6,0.00009,0.00011,39.9,40.8,45,0,0,0.0,0.42,0.00,0.00
15min,AgWx,bigpiney,439,08NOV2020:04:15:00,25.4,12.6,26.2,25.9,24.9,25.9,24.3,78,83,74,0.384,18.9,20.8,17.6,5.217,5.2,154,12,7.4,0.00008,0.00010,39.9,40.8,45,0,0,0.0,0.42,0.00,0.00
15min,AgWx,bigpiney,439,08NOV2020:04:30:00,25.2,12.6,24.0,24.0,24.5,25.9,23.6,79,81,78,0.353,19.1,20.6,18.1,5.897,6.0,137,8.7,8.0,0.00008,0.00010,39.8,40.9,45,0,0,0.0,0.42,0.00,0.00
15min,AgWx,bigpiney,439,08NOV2020:04:45:00,25.0,12.59,25.0,24.3,24.2,25.2,23.6,78,81,75,0.356,18.5,19.1,17.5,3.661,4.6,143,11,6.5,0.00007,0.00009,39.8,40.8,45,0,0,0.0,0.42,0.00,0.00
15min,AgWx,bigpiney,439,08NOV2020:05:00:00,24.7,12.59,25.1,24.5,24.1,24.7,23.4,79,80,77,0.347,18.6,19.1,17.9,3.42,3.8,155,6.2,4.5,0.00006,0.00008,39.8,40.8,45,0,0,0.0,0.42,0.00,0.00
15min,AgWx,bigpiney,439,08NOV2020:05:15:00,24.5,12.59,23.3,22.8,23.8,24.7,22.8,80,80,78,0.334,18.5,19.2,17.6,2.762,2.9,165,21,4.1,0.00005,0.00007,39.8,40.8,45,0,0,0.0,0.42,0.00,0.00
15min,AgWx,bigpiney,439,08NOV2020:05:30:00,24.3,12.59,24.9,24.5,23.7,24.6,22.8,79,81,77,0.344,18.2,18.7,17.6,3.793,3.2,208,11,3.8,0.00006,0.00008,39.8,40.8,45,0,0,0.0,0.42,0.00,0.00
15min,AgWx,bigpiney,439,08NOV2020:05:45:00,24.2,12.59,25.5,24.2,24.6,25.7,23.0,76,79,73,0.345,18.0,18.7,16.6,3.573,4.1,171,20,6.1,0.00008,0.00010,39.7,40.8,45,0,0,0.0,0.42,0.00,0.00
15min,AgWx,bigpiney,439,08NOV2020:06:00:00,24.3,12.59,23.4,22.6,24.2,25.3,22.3,77,83,74,0.342,17.9,18.5,16.9,2.806,2.2,210,78,3.9,0.00005,0.00007,39.7,40.8,45,0,0,0.0,0.42,0.00,0.00
15min,AgWx,bigpiney,439,08NOV2020:06:15:00,24.2,12.58,23.3,23.9,24.2,25.0,22.6,78,83,75,0.330,18.3,19.1,17.0,1.951,1.4,63,51,3.2,0.00004,0.00006,39.7,40.8,45,0,0,0.0,0.42,0.00,0.00
15min,AgWx,bigpiney,439,08NOV2020:06:30:00,24.1,12.58,25.0,23.6,22.9,23.8,22.3,82,84,76,0.347,18.3,19.1,17.0,2.302,1.0,113,69,2.6,0.00002,0.00003,39.7,40.8,45,0,0,0.0,0.42,0.00,0.00
15min,AgWx,bigpiney,439,08NOV2020:06:45:00,24.0,12.57,25.2,24.6,24.3,24.7,23.8,80,81,77,0.364,19.0,19.5,18.4,5.765,4.4,146,13,7.1,0.00007,0.00008,39.6,40.8,45,0,0,0.0,0.42,0.00,0.00
15min,AgWx,bigpiney,439,08NOV2020:07:00:00,24.3,12.58,25.5,25.1,24.9,25.3,24.6,80,81,79,0.365,19.6,20.0,19.4,7.388,6.2,151,9.7,9.7,0.00008,0.00009,39.6,40.8,45,1,0,0.0,0.42,0.00,0.00
15min,AgWx,bigpiney,439,08NOV2020:07:15:00,24.6,12.64,24.6,24.5,24.6,25.1,24.2,78,79,77,0.344,18.8,19.6,18.0,5.415,6.1,167,8.0,7.4,0.00009,0.00011,39.6,40.8,45,6,0,0.0,0.42,0.00,0.00
15min,AgWx,bigpiney,439,08NOV2020:07:30:00,24.7,13.14,24.2,23.8,24.2,24.7,23.7,77,77,76,0.336,18.0,18.3,17.6,6.357,5.8,178,5.0,7.8,-0.00006,0.00004,39.5,40.8,45,27,0,0.0,0.42,0.00,0.00
15min,AgWx,bigpiney,439,08NOV2020:07:45:00,24.7,14.97,24.4,24.1,23.8,24.2,23.4,76,77,76,0.337,17.5,17.8,17.1,6.16,5.5,161,11,7.5,-0.00001,0.00009,39.5,40.8,45,48,0,0.0,0.42,0.00,0.00
15min,AgWx,bigpiney,439,08NOV2020:08:00:00,24.9,14.98,26.4,25.5,24.6,25.5,24.0,78,78,76,0.362,18.6,19.5,17.7,6.094,4.5,186,11,6.5,0.00009,0.00018,39.5,40.8,45,89,0,0.0,0.42,0.00,0.00
15min,AgWx,bigpiney,439,08NOV2020:08:15:00,25.4,14.94,26.5,26.3,25.9,26.3,25.6,76,77,74,0.362,19.3,19.5,19.2,4.604,5.5,209,8.1,7.3,0.00023,0.00035,39.4,40.8,45,84,0,0.0,0.42,0.00,0.00
15min,AgWx,bigpiney,439,08NOV2020:08:30:00,26.3,15.04,28.7,28.3,27.3,28.3,26.3,74,76,73,0.383,20.2,21.3,19.4,6.883,6.6,220,11,9.3,0.00046,0.00063,39.4,40.8,45,189,0,0.0,0.42,0.00,0.00
15min,AgWx,bigpiney,439,08NOV2020:08:45:00,27.8,14.89,28.5,28.2,28.5,28.7,28.2,71,74,69,0.385,20.4,20.8,19.9,8.42,9.0,203,7.8,12.1,0.00053,0.00076,39.4,40.8,45,161,0,0.0,0.42,0.00,0.00